﻿測定場所 (Monitoring sites),日付 (Measurement date),時間 (Measurement time),線量率 最大値 (max) μGy/h,線量率 最小値 (min) μGy/h,線量率 平均値 (average) μGy/h,
新宿 (Shinjuku),2012-01-15,23:00～23:59,0.0548,0.0488,0.0522,
新宿 (Shinjuku),2012-01-15,22:00～22:59,0.0549,0.0489,0.0520,
新宿 (Shinjuku),2012-01-15,21:00～21:59,0.0544,0.0503,0.0521,
新宿 (Shinjuku),2012-01-15,20:00～20:59,0.0544,0.0503,0.0521,
新宿 (Shinjuku),2012-01-15,19:00～19:59,0.0549,0.0497,0.0518,
新宿 (Shinjuku),2012-01-15,18:00～18:59,0.0542,0.0496,0.0518,
新宿 (Shinjuku),2012-01-15,17:00～17:59,0.0542,0.0495,0.0517,
新宿 (Shinjuku),2012-01-15,16:00～16:59,0.0544,0.0483,0.0515,
新宿 (Shinjuku),2012-01-15,15:00～15:59,0.0547,0.0491,0.0519,
新宿 (Shinjuku),2012-01-15,14:00～14:59,0.0537,0.0490,0.0515,
新宿 (Shinjuku),2012-01-15,13:00～13:59,0.0541,0.0496,0.0518,
新宿 (Shinjuku),2012-01-15,12:00～12:59,0.0548,0.0492,0.0517,
新宿 (Shinjuku),2012-01-15,11:00～11:59,0.0545,0.0499,0.0519,
新宿 (Shinjuku),2012-01-15,10:00～10:59,0.0541,0.0496,0.0520,
新宿 (Shinjuku),2012-01-15,09:00～09:59,0.0545,0.0503,0.0519,
新宿 (Shinjuku),2012-01-15,08:00～08:59,0.0554,0.0497,0.0523,
新宿 (Shinjuku),2012-01-15,07:00～07:59,0.0547,0.0499,0.0521,
新宿 (Shinjuku),2012-01-15,06:00～06:59,0.0541,0.0498,0.0519,
新宿 (Shinjuku),2012-01-15,05:00～05:59,0.0548,0.0495,0.0521,
新宿 (Shinjuku),2012-01-15,04:00～04:59,0.0538,0.0490,0.0519,
新宿 (Shinjuku),2012-01-15,03:00～03:59,0.0542,0.0499,0.0520,
新宿 (Shinjuku),2012-01-15,02:00～02:59,0.0558,0.0503,0.0522,
新宿 (Shinjuku),2012-01-15,01:00～01:59,0.0538,0.0503,0.0520,
新宿 (Shinjuku),2012-01-15,00:00～00:59,0.0548,0.0496,0.0520,
新宿 (Shinjuku),2012-01-14,23:00～23:59,0.0546,0.0493,0.0518,
新宿 (Shinjuku),2012-01-14,22:00～22:59,0.0544,0.0489,0.0518,
新宿 (Shinjuku),2012-01-14,21:00～21:59,0.0542,0.0497,0.0517,
新宿 (Shinjuku),2012-01-14,20:00～20:59,0.0541,0.0495,0.0519,
新宿 (Shinjuku),2012-01-14,19:00～19:59,0.0552,0.0498,0.0520,
新宿 (Shinjuku),2012-01-14,18:00～18:59,0.0544,0.0495,0.0517,
新宿 (Shinjuku),2012-01-14,17:00～17:59,0.0530,0.0490,0.0513,
新宿 (Shinjuku),2012-01-14,16:00～16:59,0.0541,0.0492,0.0516,
新宿 (Shinjuku),2012-01-14,15:00～15:59,0.0544,0.0488,0.0515,
新宿 (Shinjuku),2012-01-14,14:00～14:59,0.0537,0.0491,0.0515,
新宿 (Shinjuku),2012-01-14,13:00～13:59,0.0537,0.0500,0.0516,
新宿 (Shinjuku),2012-01-14,12:00～12:59,0.0544,0.0489,0.0517,
新宿 (Shinjuku),2012-01-14,11:00～11:59,0.0545,0.0496,0.0516,
新宿 (Shinjuku),2012-01-14,10:00～10:59,0.0540,0.0492,0.0516,
新宿 (Shinjuku),2012-01-14,09:00～09:59,0.0539,0.0493,0.0515,
新宿 (Shinjuku),2012-01-14,08:00～08:59,0.0551,0.0485,0.0512,
新宿 (Shinjuku),2012-01-14,07:00～07:59,0.0537,0.0489,0.0512,
新宿 (Shinjuku),2012-01-14,06:00～06:59,0.0546,0.0490,0.0514,
新宿 (Shinjuku),2012-01-14,05:00～05:59,0.0554,0.0492,0.0519,
新宿 (Shinjuku),2012-01-14,04:00～04:59,0.0548,0.0499,0.0522,
新宿 (Shinjuku),2012-01-14,03:00～03:59,0.0555,0.0497,0.0523,
新宿 (Shinjuku),2012-01-14,02:00～02:59,0.0548,0.0499,0.0522,
新宿 (Shinjuku),2012-01-14,01:00～01:59,0.0541,0.0491,0.0522,
新宿 (Shinjuku),2012-01-14,00:00～00:59,0.0541,0.0497,0.0517,
新宿 (Shinjuku),2012-01-13,23:00～23:59,0.0542,0.0498,0.0521,
新宿 (Shinjuku),2012-01-13,22:00～22:59,0.0544,0.0495,0.0517,
新宿 (Shinjuku),2012-01-13,21:00～21:59,0.0551,0.0486,0.0516,
新宿 (Shinjuku),2012-01-13,20:00～20:59,0.0539,0.0497,0.0518,
新宿 (Shinjuku),2012-01-13,19:00～19:59,0.0544,0.0487,0.0516,
新宿 (Shinjuku),2012-01-13,18:00～18:59,0.0545,0.0495,0.0515,
新宿 (Shinjuku),2012-01-13,17:00～17:59,,,点検中,
新宿 (Shinjuku),2012-01-13,16:00～16:59,,,点検中,
新宿 (Shinjuku),2012-01-13,15:00～15:59,,,点検中,
新宿 (Shinjuku),2012-01-13,14:00～14:59,,,点検中,
新宿 (Shinjuku),2012-01-13,13:00～13:59,,,点検中,
新宿 (Shinjuku),2012-01-13,12:00～12:59,0.0555,0.0501,0.0525,
新宿 (Shinjuku),2012-01-13,11:00～11:59,0.0555,0.0496,0.0526,
新宿 (Shinjuku),2012-01-13,10:00～10:59,0.0559,0.0505,0.0528,
新宿 (Shinjuku),2012-01-13,09:00～09:59,0.0558,0.0495,0.0532,
新宿 (Shinjuku),2012-01-13,08:00～08:59,0.0566,0.0503,0.0535,
新宿 (Shinjuku),2012-01-13,07:00～07:59,0.0564,0.0509,0.0535,
新宿 (Shinjuku),2012-01-13,06:00～06:59,0.0556,0.0506,0.0533,
新宿 (Shinjuku),2012-01-13,05:00～05:59,0.0550,0.0497,0.0527,
新宿 (Shinjuku),2012-01-13,04:00～04:59,0.0558,0.0503,0.0529,
新宿 (Shinjuku),2012-01-13,03:00～03:59,0.0539,0.0498,0.0522,
新宿 (Shinjuku),2012-01-13,02:00～02:59,0.0551,0.0488,0.0523,
新宿 (Shinjuku),2012-01-13,01:00～01:59,0.0558,0.0499,0.0524,
新宿 (Shinjuku),2012-01-13,00:00～00:59,0.0554,0.0497,0.0520,
新宿 (Shinjuku),2012-01-12,23:00～23:59,0.0549,0.0489,0.0518,
新宿 (Shinjuku),2012-01-12,22:00～22:59,0.0540,0.0495,0.0514,
新宿 (Shinjuku),2012-01-12,21:00～21:59,0.0534,0.0489,0.0513,
新宿 (Shinjuku),2012-01-12,20:00～20:59,0.0534,0.0488,0.0514,
新宿 (Shinjuku),2012-01-12,19:00～19:59,0.0548,0.0485,0.0517,
新宿 (Shinjuku),2012-01-12,18:00～18:59,0.0538,0.0498,0.0518,
新宿 (Shinjuku),2012-01-12,17:00～17:59,0.0546,0.0488,0.0516,
新宿 (Shinjuku),2012-01-12,16:00～16:59,0.0543,0.0501,0.0522,
新宿 (Shinjuku),2012-01-12,15:00～15:59,0.0543,0.0490,0.0515,
新宿 (Shinjuku),2012-01-12,14:00～14:59,0.0534,0.0492,0.0514,
新宿 (Shinjuku),2012-01-12,13:00～13:59,0.0546,0.0490,0.0514,
新宿 (Shinjuku),2012-01-12,12:00～12:59,0.0542,0.0491,0.0516,
新宿 (Shinjuku),2012-01-12,11:00～11:59,0.0544,0.0489,0.0518,
新宿 (Shinjuku),2012-01-12,10:00～10:59,0.0544,0.0493,0.0518,
新宿 (Shinjuku),2012-01-12,09:00～09:59,0.0534,0.0490,0.0516,
新宿 (Shinjuku),2012-01-12,08:00～08:59,0.0545,0.0491,0.0516,
新宿 (Shinjuku),2012-01-12,07:00～07:59,0.0539,0.0478,0.0515,
新宿 (Shinjuku),2012-01-12,06:00～06:59,0.0536,0.0482,0.0516,
新宿 (Shinjuku),2012-01-12,05:00～05:59,0.0538,0.0488,0.0514,
新宿 (Shinjuku),2012-01-12,04:00～04:59,0.0533,0.0486,0.0514,
新宿 (Shinjuku),2012-01-12,03:00～03:59,0.0534,0.0491,0.0512,
新宿 (Shinjuku),2012-01-12,02:00～02:59,0.0539,0.0492,0.0515,
新宿 (Shinjuku),2012-01-12,01:00～01:59,0.0537,0.0488,0.0517,
新宿 (Shinjuku),2012-01-12,00:00～00:59,0.0550,0.0504,0.0524,
新宿 (Shinjuku),2012-01-11,23:00～23:59,0.0558,0.0503,0.0525,
新宿 (Shinjuku),2012-01-11,22:00～22:59,0.0550,0.0504,0.0524,
新宿 (Shinjuku),2012-01-11,21:00～21:59,0.0550,0.0493,0.0523,
新宿 (Shinjuku),2012-01-11,20:00～20:59,0.0553,0.0507,0.0525,
新宿 (Shinjuku),2012-01-11,19:00～19:59,0.0553,0.0498,0.0525,
新宿 (Shinjuku),2012-01-11,18:00～18:59,0.0551,0.0497,0.0522,
新宿 (Shinjuku),2012-01-11,17:00～17:59,0.0544,0.0488,0.0521,
新宿 (Shinjuku),2012-01-11,16:00～16:59,0.0551,0.0505,0.0524,
新宿 (Shinjuku),2012-01-11,15:00～15:59,0.0547,0.0503,0.0524,
新宿 (Shinjuku),2012-01-11,14:00～14:59,0.0555,0.0494,0.0525,
新宿 (Shinjuku),2012-01-11,13:00～13:59,0.0559,0.0501,0.0529,
新宿 (Shinjuku),2012-01-11,12:00～12:59,0.0553,0.0505,0.0531,
新宿 (Shinjuku),2012-01-11,11:00～11:59,0.0565,0.0506,0.0531,
新宿 (Shinjuku),2012-01-11,10:00～10:59,0.0569,0.0509,0.0535,
新宿 (Shinjuku),2012-01-11,09:00～09:59,0.0572,0.0519,0.0542,
新宿 (Shinjuku),2012-01-11,08:00～08:59,0.0570,0.0513,0.0537,
新宿 (Shinjuku),2012-01-11,07:00～07:59,0.0572,0.0513,0.0535,
新宿 (Shinjuku),2012-01-11,06:00～06:59,0.0553,0.0501,0.0535,
新宿 (Shinjuku),2012-01-11,05:00～05:59,0.0563,0.0509,0.0536,
新宿 (Shinjuku),2012-01-11,04:00～04:59,0.0551,0.0509,0.0532,
新宿 (Shinjuku),2012-01-11,03:00～03:59,0.0558,0.0496,0.0531,
新宿 (Shinjuku),2012-01-11,02:00～02:59,0.0558,0.0506,0.0532,
新宿 (Shinjuku),2012-01-11,01:00～01:59,0.0565,0.0515,0.0534,
新宿 (Shinjuku),2012-01-11,00:00～00:59,0.0558,0.0509,0.0528,
新宿 (Shinjuku),2012-01-10,23:00～23:59,0.0546,0.0497,0.0523,
新宿 (Shinjuku),2012-01-10,22:00～22:59,0.0556,0.0496,0.0521,
新宿 (Shinjuku),2012-01-10,21:00～21:59,0.0548,0.0499,0.0521,
新宿 (Shinjuku),2012-01-10,20:00～20:59,0.0544,0.0498,0.0519,
新宿 (Shinjuku),2012-01-10,19:00～19:59,0.0541,0.0504,0.0522,
新宿 (Shinjuku),2012-01-10,18:00～18:59,0.0534,0.0497,0.0519,
新宿 (Shinjuku),2012-01-10,17:00～17:59,0.0545,0.0489,0.0521,
新宿 (Shinjuku),2012-01-10,16:00～16:59,0.0542,0.0495,0.0520,
新宿 (Shinjuku),2012-01-10,15:00～15:59,0.0545,0.0492,0.0518,
新宿 (Shinjuku),2012-01-10,14:00～14:59,0.0541,0.0500,0.0521,
新宿 (Shinjuku),2012-01-10,13:00～13:59,0.0544,0.0493,0.0522,
新宿 (Shinjuku),2012-01-10,12:00～12:59,0.0552,0.0500,0.0519,
新宿 (Shinjuku),2012-01-10,11:00～11:59,0.0552,0.0494,0.0521,
新宿 (Shinjuku),2012-01-10,10:00～10:59,0.0555,0.0503,0.0525,
新宿 (Shinjuku),2012-01-10,09:00～09:59,0.0562,0.0499,0.0528,
新宿 (Shinjuku),2012-01-10,08:00～08:59,0.0547,0.0505,0.0526,
新宿 (Shinjuku),2012-01-10,07:00～07:59,0.0559,0.0504,0.0529,
新宿 (Shinjuku),2012-01-10,06:00～06:59,0.0550,0.0503,0.0527,
新宿 (Shinjuku),2012-01-10,05:00～05:59,0.0556,0.0513,0.0535,
新宿 (Shinjuku),2012-01-10,04:00～04:59,0.0563,0.0511,0.0535,
新宿 (Shinjuku),2012-01-10,03:00～03:59,0.0574,0.0506,0.0530,
新宿 (Shinjuku),2012-01-10,02:00～02:59,0.0558,0.0509,0.0534,
新宿 (Shinjuku),2012-01-10,01:00～01:59,0.0562,0.0509,0.0534,
新宿 (Shinjuku),2012-01-10,00:00～00:59,0.0566,0.0513,0.0533,
新宿 (Shinjuku),2012-01-09,23:00～23:59,0.0550,0.0497,0.0527,
新宿 (Shinjuku),2012-01-09,22:00～22:59,0.0544,0.0502,0.0523,
新宿 (Shinjuku),2012-01-09,21:00～21:59,0.0555,0.0492,0.0523,
新宿 (Shinjuku),2012-01-09,20:00～20:59,0.0547,0.0496,0.0522,
新宿 (Shinjuku),2012-01-09,19:00～19:59,0.0559,0.0495,0.0525,
新宿 (Shinjuku),2012-01-09,18:00～18:59,0.0544,0.0496,0.0520,
新宿 (Shinjuku),2012-01-09,17:00～17:59,0.0536,0.0502,0.0519,
新宿 (Shinjuku),2012-01-09,16:00～16:59,0.0552,0.0500,0.0520,
新宿 (Shinjuku),2012-01-09,15:00～15:59,0.0544,0.0496,0.0523,
新宿 (Shinjuku),2012-01-09,14:00～14:59,0.0542,0.0494,0.0519,
新宿 (Shinjuku),2012-01-09,13:00～13:59,0.0552,0.0495,0.0523,
新宿 (Shinjuku),2012-01-09,12:00～12:59,0.0553,0.0505,0.0525,
新宿 (Shinjuku),2012-01-09,11:00～11:59,0.0548,0.0503,0.0527,
新宿 (Shinjuku),2012-01-09,10:00～10:59,0.0556,0.0489,0.0529,
新宿 (Shinjuku),2012-01-09,09:00～09:59,0.0553,0.0507,0.0530,
新宿 (Shinjuku),2012-01-09,08:00～08:59,0.0555,0.0501,0.0528,
新宿 (Shinjuku),2012-01-09,07:00～07:59,0.0558,0.0503,0.0526,
新宿 (Shinjuku),2012-01-09,06:00～06:59,0.0556,0.0499,0.0526,
新宿 (Shinjuku),2012-01-09,05:00～05:59,0.0540,0.0498,0.0522,
新宿 (Shinjuku),2012-01-09,04:00～04:59,0.0560,0.0496,0.0523,
新宿 (Shinjuku),2012-01-09,03:00～03:59,0.0551,0.0499,0.0520,
新宿 (Shinjuku),2012-01-09,02:00～02:59,0.0544,0.0492,0.0521,
新宿 (Shinjuku),2012-01-09,01:00～01:59,0.0544,0.0484,0.0521,
新宿 (Shinjuku),2012-01-09,00:00～00:59,0.0541,0.0500,0.0520,
